www.pogodaiklimat.ru

Погода и климат >> Архив погоды >> Гана >> Солтпонд


ПОГОДА в Солтпонде

  • Прогноз погоды в Солтпонде
  • Монитор погоды в Солтпонде

АРХИВ ПОГОДЫ в Солтпонде

Время (UTC), дата Ветер
(напр.,м/с)
 
Видим.   Явления Облачность Т
(С)
Тd
(С)
f
(%)
Тe
(С)
Тes
(С)
Комфортность P
(гПа)
Po
(гПа)
Тmin
(С)
Tmax
(С)
R
(мм)
R24
(мм)
S
(см)
15 11.04 ЮВ 3 18 км гроза без осадков 9/9 330 м
[Cb cap]
+26.5 +24.5 89 +37 +38 очень
душно
1009.0 1003.6
18 11.04 ЮВ 1 14 км гроза, ливневой дождь 9/6 330 м
[Cb cap Ac As]
+26.5 +24.6 89 +37 +37 очень
душно
1009.0 1003.6 +30.5 0.0
21 11.04 СЗ 1 14 км {гроза} 9/9 330 м
[Sc]
+29.7 +26.8 84 +46 +46 опасность
перегрева
1011.1 1005.8
00 12.04 штиль 0 18 км {гроза} 9/9 330 м
[Sc]
+25.0 +24.7 98 +35 +35 очень
душно
1009.8 1004.4
03 12.04 штиль 0 14 км 9/9 330 м
[Sc]
+25.0 +24.3 96 +35 +35 очень
душно
1008.0 1002.6
12 12.04 ЮЗ 2 20 км 8/3 480 м
[Cu med, cong Ac trans Cs]
+25.9 +25.0 95 +37 +48 очень
душно
1009.4 1004.0
15 12.04 ЮЗ 2 20 км 9/3 360 м
[Cu Sc Ac trans Cs]
+29.6 +25.6 79 +44 +48 опасность
перегрева
1007.6 1002.3
18 12.04 ЮЗ 2 18 км 8/3 360 м
[Sc Ac trans Cs]
+28.5 +26.0 86 +43 +43 опасность
перегрева
1008.0 1002.6 +29.7
21 12.04 ЮЗ 1 16 км 6/0
[Ac trans]
+27.8 +26.6 93 +43 +43 опасность
перегрева
1010.6 1005.2
00 13.04 СЗ 1 16 км 9/0
[Ac trans]
+27.2 +25.3 89 +39 +39 очень
душно
1010.9 1005.5
06 13.04 штиль 0 16 км 9/4 330 м
[Sc Cs]
+25.5 +24.7 95 +36 +36 очень
душно
1010.0 1004.6 +24.9
09 13.04 ЮЗ 1 18 км 9/1 330 м
[Sc Ac trans Cs]
+29.0 +25.8 83 +43 +50 опасность
перегрева
1012.3 1006.9
12 13.04 ЮЗ 2 18 км 9/3 450 м
[Cu med, cong Ac trans Cs]
+30.2 +26.5 81 +47 +55 опасность
перегрева
1011.1 1005.8
21 13.04 ЮЗ 1 16 км 9/0
[Cs]
+28.0 +26.7 93 +44 +44 опасность
перегрева
1011.3 1005.9
03 14.04 штиль 0 16 км 8/8 330 м
[Sc]
+26.8 +26.0 95 +40 +40 очень
душно
1009.5 1004.1
06 14.04 штиль 0 16 км 8/8 330 м
[Sc]
+26.5 +25.7 95 +39 +39 очень
душно
1011.3 1005.9 +25.9
09 14.04 ЮЗ 1 20 км 8/1 330 м
[Cu Sc Ac trans]
+29.5 +26.6 84 +45 +52 опасность
перегрева
1012.3 1006.9
12 14.04 ЮЗ 2 20 км 5/3 480 м
[Cu med, cong Ac trans]
+31.5 +26.9 77 +49 +63 опасность
перегрева
1011.2 1005.9
15 14.04 ЮЗ 2 20 км 3/1 480 м
[Cb cap Ac trans]
+31.8 +27.2 77 +50 +60 опасность
перегрева
1008.4 1003.1
21 14.04 СЗ 1 8000 м гроза, ливневой дождь 9/9 330 м
[Cb cap]
+23.7 +23.3 98 +32 +32 очень
душно
1013.9 1008.4
00 15.04 СЗ 1 8000 м гроза, ливневой дождь 9/6 330 м
[Cb cap Ac As Cs]
+23.3 +22.7 96 +32 +32 очень
душно
1011.9 1006.4 58
06 15.04 штиль 0 16 км {гроза, дождь} 9/1 330 м
[Sc Ac trans Ci sp]
+24.1 +23.5 96 +32 +32 очень
душно
1011.3 1005.9 +22.6 59
09 15.04 ЮЗ 1 18 км 9/6 330 м
[Cu Sc Ac trans Cs]
+27.5 +25.6 89 +40 +44 очень
душно
1012.3 1006.9
12 15.04 ЮЗ 2 18 км 10/4 480 м
[Cu med, cong Cs]
+30.5 +26.5 79 +47 +57 опасность
перегрева
1011.2 1005.9
15 15.04 ЮЗ 2 20 км 9/3 480 м
[Cu med, cong Cs]
+31.0 +25.7 73 +46 +52 опасность
перегрева
1008.9 1003.6
18 15.04 ЮЗ 1 18 км 5/0
[Ac trans Ci sp]
+29.0 +26.4 86 +44 +44 опасность
перегрева
1009.3 1003.9 +31.0
21 15.04 штиль 0 16 км 1/1 330 м
[Sc]
+27.8 +25.8 89 +41 +41 опасность
перегрева
1011.2 1005.8
03 16.04 штиль 0 16 км 6/6 330 м
[Sc]
+25.7 +24.8 95 +36 +36 очень
душно
1010.5 1005.1
09 16.04 СВ 1 18 км 5/3 360 м
[Cu Sc Ac trans Ci sp]
+29.5 +26.7 85 +46 +54 опасность
перегрева
1012.7 1007.3
12 16.04 ЮВ 1 18 км 4/1 480 м
[Cu med, cong Ci sp]
+31.0 +25.7 73 +46 +67 опасность
перегрева
1011.4 1006.1
15 16.04 ЮВ 1 20 км 5/1 480 м
[Cu med, cong Ci sp]
+32.0 +27.4 77 +51 +63 опасность
перегрева
1009.3 1004.0
18 16.04 ЮЗ 1 20 км 9/4 330 м
[Cb cap Cs]
+29.5 +26.9 86 +46 +46 опасность
перегрева
1009.2 1003.9 +32.0
21 16.04 штиль 0 18 км зарница 5/5 330 м
[Cb cap]
+29.1 +26.3 85 +44 +44 опасность
перегрева
1011.4 1006.0
00 17.04 штиль 0 18 км 6/6 330 м
[Sc]
+28.5 +26.5 89 +44 +44 опасность
перегрева
1011.4 1006.0
06 17.04 СЗ 1 18 км 8/3 330 м
[Sc Cs]
+26.1 +25.3 95 +38 +38 очень
душно
1009.6 1004.2 +25.6
12 17.04 ЮЗ 3 20 км 9/1 480 м
[Cu med, cong Cs]
+31.6 +27.0 77 +50 +64 опасность
перегрева
1010.7 1005.4
15 17.04 ЮЗ 4 20 км 8/1 480 м
[Cu med, cong Cs]
+31.3 +27.2 79 +50 +56 опасность
перегрева
1008.5 1003.2
21 17.04 ЮЗ 1 16 км 6/1 330 м
[Sc Ci sp]
+29.0 +26.4 86 +44 +44 опасность
перегрева
1011.1 1005.7
00 18.04 ЮЗ 1 16 км 9/0
[Cs]
+27.5 +26.2 93 +42 +42 опасность
перегрева
1011.1 1005.7
03 18.04 штиль 0 16 км 9/0
[Cs]
+27.0 +25.8 93 +40 +40 очень
душно
1009.3 1003.9
06 18.04 штиль 0 16 км 9/0
[Ac trans Cs]
+26.2 +25.3 95 +38 +38 очень
душно
1009.6 1004.2 +25.5
09 18.04 ЮЗ 2 20 км 9/1 450 м
[Cu hum Cs]
+30.0 +26.6 82 +46 +54 опасность
перегрева
1010.7 1005.4
12 18.04 ЮЗ 3 20 км 9/1 480 м
[Cu med, cong Cs]
+31.9 +26.8 74 +49 +62 опасность
перегрева
1009.8 1004.5

 

Местоположение метеостанции Солтпонд (Гана): широта 5.20 долгота -1.07 высота над уровнем моря 47 м.

В архиве по умолчанию представлена погода в Солтпонде за последнюю неделю. Архивные данные за месяц целиком и за предыдущие месяцы, начиная с января 2011 года, Вы можете получить, выбрав интересующий диапазон дат из раскрывающегося списка и нажав кнопку "Ввод!".


*Определитесь, кто Вы:
робот инопланетянин человек

Внимание! Время в таблицах - всемирное. Для получения местного времени необходимо прибавить поправку, которая равна 1 ч.

Смотрите также архив погоды в соседних городах и на ближайших метеорологических станциях:

Погода в Аким Ода (Гана) (82 км)
Погода Такоради (Гана) (85 км)
Погода в Аккра (Гана) (109 км)
Погода в Тема (Гана) (127 км)
Погода в Кофоридуа (Гана) (133 км)
Погода в Аксиме (Гана) (134 км)
Погода в Акюсе (Гана) (165 км)
Погода в Абетифи (Гана) (167 км)
Погода в Сефви Беквай (Гана) (178 км)
Погода в Кумаси (Гана) (179 км)

Пояснения к столбцам:

Ветер - указаны скорость ветра в м/с - средняя за 10 мин, порывы в срок и между сроками (в фигурных скобках) и направление, откуда дует ветер: С - северный, СВ - северо-восточный, В - восточный, ЮВ - юго-восточный, Ю - южный, ЮЗ - юго-западный, З - западный, СЗ - северо-западный.
Видимость - горизонтальная дальность видимости в метрах или километрах. При видимости от 1 до 10 км при отсутствии осадков обычно наблюдается дымка, при ухудшении видимости до 1 км и менее - туман. В сухую погоду видимость может ухудшаться дымом, пылью или мглою.
Явления - указаны атмосферные явления, наблюдавшиеся в срок или в последний час перед сроком; фигурными скобками обозначены явления, наблюдавшиеся между сроками (за 1-3 часа до срока); квадратными скобками обозначены град или гололедные отложения с указанием их диаметра в мм.
Облачность - указаны через наклонную черту общая и нижняя облачность в баллах и высота нижней границы облаков в метрах; квадратными скобками обозначены формы облаков: Ci - перистые, Cs - перисто-слоистые, Cc - перисто-кучевые, Ac - высококучевые, As - высокослоистые, Sc - слоисто-кучевые, Ns - слоисто-дождевые, Cu - кучевые, Cb - кучево-дождевые. Подробнее классификацию облаков см. в Атласе облаков (PDF).
T - Температура воздуха - температура, измеренная на высоте 2 м над землей.
Td - Температура точки росы - температура, при понижении до которой содержащийся в воздухе водяной пар достигнет насыщения.
f - Относительная влажность воздуха - влажноcть воздуха, измеренная на высоте 2 м над землей.
Te - Эффективная температура - температура, которую ощущает одетый по сезону человек в тени. Характеристика душности погоды. При расчете учитывается влияние влажности воздуха и скорости ветра на теплоощущения человека.
Tes - Эффективная температура на солнце - температура, которую ощущает человек, с поправкой на солнечный нагрев. Характеристика знойности погоды. Зависит от высоты солнца над горизонтом, облачности и скорости ветра. Ночью, в пасмурную погоду, а также при ветре 12 м/с и более поправка равна нулю.
P - Атмосферное давление - приведенное к уровню моря атмосферное давление.
Po - Атмосферное давление - измеренное на уровне метеостанции атмосферное давление.
Tmin - Минимальная температура - минимум температуры воздуха на высоте 2 м над землей.
Tmax - Максимальная температура - максимум температуры воздуха на высоте 2 м над землей.
R - Количество осадков - Количество выпавших осадков за период времени, мм. При наведении курсора мыши на число - период времени, за который выпало указанное количество осадков.
R24 - Количество осадков - Количество выпавших осадков за 24 часа, мм.
S - Снежный покров - Высота снежного покрова, см. При наведении курсора мыши на число - состояние снежного покрова и степень покрытия местности в баллах.